Regional Weather Roundup
Issued by NWS Memphis, TN

Home | Current Version | Previous Version | Text Only | Print | Product List | Glossary On
Versions: 1 2 3 4 5 6 7 8 9 10 11 12 13 14 15 16 17 18 19 20 21 22 23 24 25 26 27 28 29 30 31 32 33 34 35 36 37 38 39 40 41 42 43 44 45 46 47 48 49 50
000
ASUS44 KMEG 200210
RWRMEG
MEMPHIS CWA HOURLY WEATHER ROUNDUP
NATIONAL WEATHER SERVICE MEMPHIS TN
800 PM CST THU JAN 19 2017

...WEST TENNESSEE...

CITY           SKY/WX    TMP DP  RH WIND       PRES   REMARKS
MEMPHIS INTL   CLOUDY    58  58 100 SW5       29.72R
NWS MEMPHIS      N/A     58 N/A N/A MISG        N/A
JACKSON        LGT RAIN  60  58  92 S9        29.72F
BOLIVAR        CLOUDY    59  57  94 E7        29.70F
DYERSBURG      CLOUDY    59  55  88 S9G16     29.67F
UNION CITY     MOCLDY   N/A N/A N/A CALM      29.66F
PARIS          CLOUDY    55  55 100 CALM      29.71F
HUNTINGDON     CLOUDY    59  59 100 SW3       29.71S


...EASTERN ARKANSAS...

CITY           SKY/WX    TMP DP  RH WIND       PRES   REMARKS
JONESBORO      CLOUDY    53  51  93 SW10      29.69R
WEST MEMPHIS   CLOUDY    57  57 100 W5        29.71S
BATESVILLE     CLOUDY    48  48 100 SE3       29.70R
NEWPORT        CLOUDY    49  49 100 MISG      29.71
WALNUT RIDGE   CLOUDY    48  46  93 SW6       29.69R
BLYTHEVILLE    CLOUDY    58  57  97 W8        29.69R
SEARCY         CLOUDY    50  50 100 S3        29.72S FOG
STUTTGART      CLOUDY    54  48  82 S12       29.73S
PINE BLUFF     CLOUDY    55  54  96 S7        29.73S
MONTICELLO     CLOUDY    57  56  96 S3        29.75S


...NORTH MISSISSIPPI...

CITY           SKY/WX    TMP DP  RH WIND       PRES   REMARKS
TUPELO         CLOUDY    58  56  93 E8        29.72F
OXFORD         CLOUDY    55  55 100 SE5       29.74S FOG
BATESVILLE     PTCLDY    59  56  91 SE3       29.73R
OLIVE BRANCH   MOCLDY   N/A N/A N/A S6        29.71R
TUNICA         MOCLDY    55  54  94 W3        29.74R
CLARKSDALE     PTCLDY    57  57 100 CALM      29.75R
CORINTH        LGT RAIN  59  57  94 S7        29.75R
GREENWOOD      PTCLDY    58  55  90 CALM      29.76R
STARKVILLE     CLOUDY    61  59  94 CALM      29.77S FOG
GOLDEN TRIANGL DRIZZLE   63  57  82 CALM      29.71F FOG


...SOUTHEAST MISSOURI...

CITY           SKY/WX    TMP DP  RH WIND       PRES   REMARKS
KENNETT        CLOUDY    55  55 100 SW8       29.67S FOG
WEST PLAINS    FOG       49  48  97 S6        29.67F VSB 1/4
POPLAR BLUFF   CLOUDY    50  50 100 W3        29.67S FOG
CAPE GIRARDEAU FOG       54  52  93 SW5       29.66F VSB 1/2


...NORTHWEST ALABAMA...

CITY           SKY/WX    TMP DP  RH WIND       PRES   REMARKS
MUSCLE SHOALS  LGT RAIN  60  57  89 NW7       29.75F


...MIDDLE TENNESSEE...

CITY           SKY/WX    TMP DP  RH WIND       PRES   REMARKS
NASHVILLE      RAIN      60  58  92 W7        29.71F FOG
CLARKSVILLE    CLOUDY    55  54  96 CALM      29.71F FOG
COLUMBIA       MOCLDY   N/A N/A N/A SW5       29.72S


...WESTERN KENTUCKY...

CITY           SKY/WX    TMP DP  RH WIND       PRES   REMARKS
PADUCAH        CLOUDY    60  56  86 S9        29.67F
FORT CAMPBELL  DRIZZLE   55  55 100 CALM      29.71F


...CENTRAL ARKANSAS...

CITY           SKY/WX    TMP DP  RH WIND       PRES   REMARKS
LITTLE ROCK    CLOUDY    52  52 100 S8        29.71S FOG


SKY/WX REPORTED AS FAIR MEANS FEW OR NO CLOUDS BELOW
12 THOUSAND FEET.





USA.gov is the U.S. government's official web portal to all federal, state and local government web resources and services.